Vertical_Velocity
-5 -6 5 -8 5 2 1 -1 -1 3 1 2 4 1 -4 -1 1 2 0 6 2 -2 1 2 -3 0 2 -2 0 1 0 -1 -1
6 -7 -8 -7 0 -2 6 -1 -1 3 2 1 1 -1 -2 4 -4 0 1 7 3 1 1 -1 1 -2 -0 0 -2 2 -2 1 -2
2 5 10 9 -1 -2 2 -6 -2 2 2 -1 2 -2 -2 -1 0 1 1 6 8 0 -0 1 2 -0 1 -2 -1 1 -0 -0 0
1 2 -4 -6 -0 -0 2 3 2 1 1 0 1 -2 -1 -2 -1 -0 5 -0 1 6 1 5 -1 1 1 0 0 -0 1 -2 0
2 2 2 -4 0 2 -8 -12 -0 -0 2 1 -0 -2 -0 0 1 0 0 -0 2 4 2 -14 7 -0 1 2 1 1 1 -0 0
1 -1 -1 0 0 -4 0 2 1 -0 2 1 1 -0 -1 1 1 1 2 3 6 3 7 6 6 1 0 0 1 1 -1 -1 0
-3 -3 -0 -2 -2 -3 -2 -2 1 1 2 -2 2 1 0 0 -0 -0 1 -0 -1 6 7 1 1 4 1 1 -2 -0 0 0 1
-1 -1 -3 0 1 -0 -2 -3 0 -2 3 -0 3 -3 2 1 -1 -1 -1 7 2 2 -1 5 0 2 1 -0 3 0 -3 -0 1
-2 -3 -1 -1 1 6 3 2 2 -2 4 2 4 4 1 -2 -0 -2 0 -1 2 1 3 -2 1 -0 1 0 -3 0 5 -1 -0
0 -0 -2 1 -1 -1 -3 2 1 0 2 -0 1 3 3 0 -0 2 -1 1 -2 1 -1 6 -0 -1 -0 0 0 -0 -1 3 -0
0 -1 -0 -3 1 3 0 -0 4 0 -1 -0 -0 -2 -1 -0 0 2 -2 -2 -0 -0 -1 3 0 4 2 -1 0 1 3 -2 2
1 -2 -2 -1 -0 6 1 0 0 1 1 -6 -8 -0 5 -2 2 0 2 -4 0 -1 -1 -1 1 1 4 8 4 -0 0 1 1
-1 1 1 -3 2 -1 -1 -2 1 2 -3 3 -3 -1 -2 -2 -1 1 3 1 -1 -0 1 -0 -1 1 0 5 11 7 -0 2 1
1 -0 0 -1 -2 0 -1 -1 -4 -4 -6 -4 -4 -4 -2 -3 0 1 -1 -2 1 2 -0 -2 -1 2 -1 -1 1 1 3 5 4
-1 -1 -1 -0 -1 -3 -1 -0 0 -2 -1 -2 -3 -1 -2 1 -0 -1 1 -2 1 2 1 -0 1 -1 -2 0 -2 2 -0 -0 2
-4 -3 -1 -0 -0 0 -2 -1 3 -0 -6 -1 0 0 0 -0 -4 -1 0 2 4 -1 1 -0 1 -4 -3 -4 -1 -2 0 -0 -1
-1 -2 -4 -3 -1 -0 -0 -0 0 -1 -4 -5 -3 -1 4 3 0 0 2 4 5 2 2 2 -2 -1 -1 -3 -1 -2 -3 -2 -1
-1 -1 -1 -3 -3 -5 -3 -1 -6 -4 2 -1 -1 -4 0 -15 2 2 1 0 -1 -0 -1 -2 -1 -2 -1 -0 -0 -1 -2 -2 -1
-2 -2 -1 -1 -1 -1 -1 -2 -2 -2 -4 -3 0 2 1 -0 -5 -5 -9 -2 -4 -1 1 1 1 -0 -1 1 2 -0 -1 -2 -1
-1 -0 -1 -1 -1 -2 -2 -1 -1 -1 -2 -1 -1 0 3 -0 1 -4 -8 -7 -1 -4 -3 -2 -1 3 1 -1 -1 -2 -2 -1 -1
Height
1573 1578 1577 1579 1580 1579 1579 1578 1578 1578 1577 1577 1578 1576 1578 1579 1579 1579 1581 1581 1581 1582 1582 1582 1582 1583 1583 1583 1583 1582 1583 1583 1583
1575 1578 1580 1580 1579 1579 1580 1579 1580 1579 1580 1580 1580 1579 1580 1581 1581 1581 1583 1583 1584 1584 1584 1585 1585 1585 1584 1585 1585 1585 1585 1585 1585
1578 1578 1579 1580 1579 1579 1580 1580 1581 1581 1581 1582 1581 1581 1582 1582 1582 1583 1584 1584 1585 1586 1587 1587 1587 1587 1587 1587 1587 1587 1586 1587 1587
1579 1579 1579 1579 1579 1580 1580 1581 1581 1582 1583 1583 1582 1583 1584 1584 1584 1584 1585 1585 1587 1586 1586 1588 1589 1588 1589 1589 1589 1589 1588 1588 1589
1580 1580 1580 1580 1581 1580 1579 1581 1583 1583 1584 1584 1584 1585 1586 1586 1586 1586 1586 1587 1588 1588 1588 1587 1589 1590 1590 1590 1590 1590 1590 1590 1590
1580 1580 1581 1581 1581 1582 1582 1582 1584 1584 1585 1585 1586 1587 1587 1587 1587 1587 1588 1588 1589 1589 1589 1590 1590 1590 1591 1591 1591 1591 1591 1591 1592
1579 1581 1581 1581 1582 1583 1584 1584 1584 1585 1586 1587 1588 1588 1588 1588 1588 1589 1589 1589 1590 1590 1590 1590 1590 1591 1591 1591 1592 1591 1592 1592 1592
1578 1580 1581 1581 1583 1584 1584 1585 1585 1586 1587 1587 1588 1589 1590 1588 1589 1590 1590 1590 1590 1590 1591 1591 1591 1592 1592 1593 1593 1592 1593 1592 1593
1579 1580 1582 1582 1583 1584 1585 1586 1587 1587 1588 1588 1589 1589 1590 1590 1590 1591 1590 1591 1590 1590 1590 1592 1592 1592 1592 1592 1593 1593 1593 1592 1593
1579 1581 1582 1583 1584 1585 1586 1587 1587 1588 1588 1588 1588 1588 1589 1590 1591 1591 1591 1591 1591 1591 1591 1592 1592 1592 1592 1592 1592 1592 1592 1592 1593
1579 1580 1582 1584 1585 1585 1587 1588 1588 1588 1588 1589 1588 1588 1588 1589 1591 1591 1591 1591 1591 1591 1592 1591 1591 1591 1591 1592 1591 1592 1592 1592 1592
1579 1581 1582 1583 1584 1584 1586 1586 1587 1588 1587 1587 1587 1587 1587 1588 1589 1590 1590 1591 1591 1591 1591 1591 1592 1591 1591 1591 1591 1591 1591 1591 1591
1579 1581 1582 1584 1585 1585 1586 1587 1587 1586 1587 1587 1586 1586 1586 1586 1587 1588 1589 1589 1591 1591 1590 1590 1591 1590 1591 1589 1589 1589 1590 1590 1590
1580 1580 1581 1583 1584 1585 1585 1586 1587 1586 1586 1585 1585 1585 1585 1584 1585 1586 1587 1588 1589 1588 1589 1589 1589 1588 1588 1588 1588 1588 1588 1588 1589
1581 1581 1582 1583 1583 1585 1585 1586 1585 1585 1585 1585 1585 1584 1583 1583 1582 1583 1584 1585 1587 1586 1586 1587 1587 1586 1586 1585 1586 1586 1586 1586 1586
1582 1582 1582 1582 1582 1583 1584 1584 1584 1583 1584 1583 1583 1581 1581 1581 1581 1581 1580 1583 1584 1583 1584 1584 1584 1584 1583 1583 1583 1583 1583 1583 1583
1581 1581 1582 1582 1582 1582 1581 1581 1582 1582 1582 1582 1581 1581 1580 1579 1580 1580 1581 1580 1580 1581 1581 1580 1580 1579 1580 1580 1580 1579 1579 1579 1579
1579 1579 1580 1580 1581 1581 1580 1580 1581 1582 1582 1581 1582 1580 1580 1579 1579 1579 1578 1578 1578 1579 1578 1578 1578 1577 1576 1576 1575 1575 1574 1573 1574
1578 1578 1578 1578 1578 1578 1578 1578 1579 1579 1580 1581 1581 1581 1580 1579 1577 1576 1575 1576 1577 1577 1577 1577 1576 1575 1574 1573 1571 1569 1568 1568 1568
1577 1577 1577 1577 1576 1576 1576 1576 1576 1576 1577 1577 1577 1579 1578 1577 1576 1572 1572 1573 1574 1574 1574 1574 1573 1572 1569 1568 1567 1566 1565 1564 1562